When you browse on this site, cookies collect data to enhance your experience and personalize the content and advertising you see.
Visit our Privacy Policy to learn more. By continuing to use the site, you agree to this use of cookies and data.
  • In Spain
  • List of Countries
  • For 7 days
  • Water Temperature
  • Weather Map
  • Weather Widgets
  • user-avatar
    Login

    Hourly Weather Benguela

    Today, 23 August, Friday

    Time Temperature Precipitation Wind Pressure Humidity
    00:00 +20°C° 0 mm 2 mps 761 mmHg 92%
    01:00 +19°C° 0 mm 2 mps 761 mmHg 92%
    02:00 +20°C° 0 mm 1 mps 761 mmHg 92%
    03:00 +20°C° 0 mm 1 mps 760 mmHg 92%
    04:00 +18°C° 0 mm 0 mps 760 mmHg 91%
    05:00 +20°C° 0 mm 1 mps 761 mmHg 89%
    06:00 +21°C° 0 mm 1 mps 762 mmHg 86%
    07:00 +23°C° 0 mm 1 mps 762 mmHg 84%
    08:00 +25°C° 0 mm 2 mps 762 mmHg 74%
    09:00 +27°C° 0 mm 2 mps 762 mmHg 63%
    10:00 +29°C° 0 mm 3 mps 761 mmHg 52%
    11:00 +29°C° 0 mm 3 mps 761 mmHg 53%
    12:00 +30°C° 0 mm 4 mps 760 mmHg 54%
    13:00 +30°C° 0 mm 4 mps 759 mmHg 55%
    14:00 +29°C° 0 mm 4 mps 759 mmHg 58%
    15:00 +28°C° 0 mm 3 mps 758 mmHg 60%
    16:00 +27°C° 0 mm 3 mps 758 mmHg 63%
    17:00 +26°C° 0 mm 2 mps 758 mmHg 72%
    18:00 +24°C° 0 mm 2 mps 759 mmHg 81%
    19:00 +21°C° 0 mm 2 mps 760 mmHg 90%
    20:00 +22°C° 0 mm 1 mps 760 mmHg 90%
    21:00 +21°C° 0 mm 1 mps 760 mmHg 90%
    22:00 +21°C° 0 mm 1 mps 761 mmHg 90%
    23:00 +20°C° 0 mm 2 mps 761 mmHg 89%

    Tomorrow, 24 August, Saturday

    Time Temperature Precipitation Wind Pressure Humidity
    00:00 +20°C° 0 mm 3 mps 761 mmHg 88%
    01:00 +20°C° 0 mm 3 mps 761 mmHg 87%
    02:00 +20°C° 0 mm 2 mps 760 mmHg 87%
    03:00 +19°C° 0 mm 2 mps 760 mmHg 88%
    04:00 +20°C° 0 mm 1 mps 760 mmHg 88%
    05:00 +20°C° 0 mm 1 mps 761 mmHg 86%
    06:00 +21°C° 0 mm 1 mps 761 mmHg 84%
    07:00 +22°C° 0 mm 1 mps 762 mmHg 81%
    08:00 +23°C° 0 mm 2 mps 762 mmHg 75%
    09:00 +25°C° 0 mm 3 mps 762 mmHg 68%
    10:00 +27°C° 0 mm 3 mps 762 mmHg 61%
    11:00 +28°C° 0 mm 4 mps 761 mmHg 58%
    12:00 +29°C° 0 mm 4 mps 760 mmHg 54%
    13:00 +30°C° 0 mm 4 mps 759 mmHg 51%
    14:00 +29°C° 0 mm 4 mps 759 mmHg 54%
    15:00 +28°C° 0 mm 3 mps 758 mmHg 58%
    16:00 +27°C° 0 mm 3 mps 757 mmHg 62%
    17:00 +25°C° 0 mm 2 mps 758 mmHg 72%
    18:00 +23°C° 0 mm 2 mps 759 mmHg 82%
    19:00 +21°C° 0 mm 1 mps 759 mmHg 92%
    20:00 +21°C° 0 mm 1 mps 760 mmHg 91%
    21:00 +21°C° 0 mm 1 mps 760 mmHg 90%
    22:00 +22°C° 0 mm 1 mps 761 mmHg 89%
    23:00 +21°C° 0 mm 1 mps 761 mmHg 90%

    Day after tomorrow, 25 August, Sunday

    Time Temperature Precipitation Wind Pressure Humidity
    00:00 +20°C° 0 mm 1 mps 761 mmHg 91%
    01:00 +20°C° 0 mm 1 mps 760 mmHg 91%
    02:00 +20°C° 0 mm 1 mps 760 mmHg 92%
    03:00 +17°C° 0 mm 0 mps 760 mmHg 92%
    04:00 +17°C° 0 mm 0 mps 760 mmHg 93%
    05:00 +20°C° 0 mm 1 mps 760 mmHg 90%
    06:00 +20°C° 0 mm 1 mps 761 mmHg 87%
    07:00 +20°C° 0 mm 2 mps 761 mmHg 84%
    08:00 +24°C° 0 mm 2 mps 761 mmHg 75%
    09:00 +26°C° 0 mm 3 mps 761 mmHg 66%
    10:00 +28°C° 0 mm 3 mps 760 mmHg 57%
    11:00 +29°C° 0 mm 3 mps 760 mmHg 56%
    12:00 +29°C° 0 mm 4 mps 759 mmHg 54%
    13:00 +30°C° 0 mm 4 mps 758 mmHg 53%
    14:00 +29°C° 0 mm 4 mps 758 mmHg 56%
    15:00 +28°C° 0 mm 3 mps 757 mmHg 60%
    16:00 +27°C° 0 mm 3 mps 757 mmHg 63%
    17:00 +25°C° 0 mm 2 mps 758 mmHg 72%
    18:00 +24°C° 0 mm 2 mps 759 mmHg 81%
    19:00 +22°C° 0 mm 1 mps 760 mmHg 89%
    20:00 +22°C° 0 mm 1 mps 760 mmHg 88%
    21:00 +22°C° 0 mm 1 mps 761 mmHg 86%
    22:00 +22°C° 0 mm 1 mps 761 mmHg 85%
    23:00 +21°C° 0 mm 1 mps 761 mmHg 87%

    26 August, Monday

    Time Temperature Precipitation Wind Pressure Humidity
    00:00 +19°C° 0 mm 0 mps 761 mmHg 89%
    01:00 +18°C° 0 mm 0 mps 761 mmHg 91%
    02:00 +18°C° 0 mm 0 mps 761 mmHg 92%
    03:00 +17°C° 0 mm 0 mps 761 mmHg 93%
    04:00 +17°C° 0 mm 0 mps 761 mmHg 94%
    05:00 +18°C° 0 mm 0 mps 761 mmHg 92%
    06:00 +21°C° 0 mm 1 mps 762 mmHg 90%
    07:00 +22°C° 0 mm 1 mps 762 mmHg 88%
    08:00 +23°C° 0 mm 2 mps 762 mmHg 79%
    09:00 +25°C° 0 mm 2 mps 762 mmHg 71%
    10:00 +26°C° 0 mm 3 mps 762 mmHg 63%
    11:00 +27°C° 0 mm 3 mps 761 mmHg 59%
    12:00 +28°C° 0 mm 4 mps 760 mmHg 54%
    13:00 +29°C° 0 mm 4 mps 759 mmHg 50%
    14:00 +29°C° 0 mm 4 mps 759 mmHg 53%
    15:00 +28°C° 0 mm 4 mps 759 mmHg 55%
    16:00 +27°C° 0 mm 3 mps 759 mmHg 58%
    17:00 +25°C° 0 mm 2 mps 759 mmHg 68%
    18:00 +23°C° 0 mm 1 mps 760 mmHg 78%
    19:00 +19°C° 0 mm 0 mps 761 mmHg 89%
    20:00 +21°C° 0 mm 1 mps 761 mmHg 89%
    21:00 +21°C° 0 mm 1 mps 762 mmHg 90%
    22:00 +20°C° 0 mm 1 mps 763 mmHg 91%
    23:00 +20°C° 0 mm 1 mps 762 mmHg 91%

    27 August, Tuesday

    Time Temperature Precipitation Wind Pressure Humidity
    00:00 +20°C° 0 mm 1 mps 762 mmHg 91%
    01:00 +17°C° 0 mm 0 mps 762 mmHg 91%
    02:00 +19°C° 0 mm 1 mps 762 mmHg 90%
    03:00 +19°C° 0 mm 1 mps 762 mmHg 90%
    04:00 +18°C° 0 mm 2 mps 762 mmHg 89%
    05:00 +19°C° 0 mm 2 mps 762 mmHg 84%
    06:00 +21°C° 0 mm 1 mps 762 mmHg 80%
    07:00 +21°C° 0 mm 1 mps 762 mmHg 76%
    08:00 +24°C° 0 mm 2 mps 762 mmHg 65%
    09:00 +27°C° 0 mm 2 mps 762 mmHg 53%
    10:00 +29°C° 0 mm 2 mps 762 mmHg 42%
    11:00 +30°C° 0 mm 3 mps 761 mmHg 41%
    12:00 +32°C° 0 mm 4 mps 760 mmHg 40%
    13:00 +33°C° 0 mm 5 mps 759 mmHg 40%
    14:00 +32°C° 0 mm 5 mps 759 mmHg 42%
    15:00 +30°C° 0 mm 5 mps 758 mmHg 45%
    16:00 +29°C° 0 mm 4 mps 758 mmHg 48%
    17:00 +26°C° 0 mm 4 mps 759 mmHg 61%
    18:00 +24°C° 0 mm 3 mps 759 mmHg 74%
    19:00 +21°C° 0 mm 2 mps 760 mmHg 87%
    20:00 +20°C° 0 mm 2 mps 760 mmHg 89%
    21:00 +20°C° 0 mm 2 mps 761 mmHg 92%
    22:00 +20°C° 0 mm 1 mps 762 mmHg 94%
    23:00 +20°C° 0 mm 1 mps 761 mmHg 94%

    28 August, Wednesday

    Time Temperature Precipitation Wind Pressure Humidity
    00:00 +20°C° 0 mm 1 mps 761 mmHg 94%
    01:00 +19°C° 0 mm 1 mps 761 mmHg 94%
    02:00 +20°C° 0 mm 1 mps 761 mmHg 92%
    03:00 +20°C° 0 mm 1 mps 761 mmHg 89%
    04:00 +20°C° 0 mm 1 mps 761 mmHg 87%
    05:00 +21°C° 0 mm 1 mps 761 mmHg 85%
    06:00 +21°C° 0 mm 1 mps 761 mmHg 83%
    07:00 +21°C° 0 mm 1 mps 761 mmHg 81%
    08:00 +23°C° 0 mm 1 mps 761 mmHg 71%
    09:00 +26°C° 0 mm 2 mps 761 mmHg 62%
    10:00 +28°C° 0 mm 2 mps 761 mmHg 53%
    11:00 +28°C° 0 mm 3 mps 760 mmHg 53%
    12:00 +29°C° 0 mm 4 mps 759 mmHg 52%
    13:00 +29°C° 0 mm 4 mps 758 mmHg 52%
    14:00 +28°C° 0 mm 4 mps 758 mmHg 54%
    15:00 +27°C° 0 mm 4 mps 757 mmHg 57%
    16:00 +27°C° 0 mm 4 mps 757 mmHg 59%
    17:00 +25°C° 0 mm 3 mps 758 mmHg 69%
    18:00 +23°C° 0 mm 2 mps 758 mmHg 78%
    19:00 +20°C° 0 mm 2 mps 759 mmHg 87%
    20:00 +21°C° 0 mm 1 mps 760 mmHg 88%
    21:00 +21°C° 0 mm 1 mps 760 mmHg 89%
    22:00 +18°C° 0 mm 0 mps 761 mmHg 90%
    23:00 +18°C° 0 mm 0 mps 760 mmHg 92%
    Show more